User: anonymous   Login
Location: Friaudour
(46.0460°N, 1.2873°E)
Time: 14:11:43
(UTC+00:00)
Language:

ERS-2 - Orbit

View from above orbital plane
View from above orbital plane
View from above satellite
View from above satellite

Ground track
Ground track

The orbit data is extracted from the following two-line orbital elements,

1 23560U 95021A   20274.92589920 +.00001100 +00000-0 +50135-4 0  9992
2 23560 098.5529 082.9380 0003793 154.5111 205.6310 15.23315104358172
Epoch (UTC): 30 September 2020 22:13:17
Eccentricity: 0.0003793
inclination: 98.5529°
perigee height: 493 km
apogee height: 498 km
right ascension of ascending node: 82.9380°
argument of perigee: 154.5111°
revolutions per day: 15.23315104
mean anomaly at epoch: 205.6310°
orbit number at epoch: 35817

The dashed part of the orbit path shows where the satellite is in the earth's shadow,  

DLR